Location: Ahausen
(50.4985°N, 8.2722°E)
Time: 03:46:53
(UTC+00:00)

Cosmos 1626 - Pass Details

Date: 18 September 2020
Orbit: 490 x 495 km, 82.5° (Epoch: 22 October)

Event Time Altitude Azimuth Distance (km) Brightness Sun altitude
Rises 18:37:44 0° 6° (N) 2,591 5.9 -10.9°
Reaches altitude 10° 18:41:02 10° 38° (NE) 1,700 4.6 -11.4°
Maximum altitude 18:42:37 12° 63° (ENE) 1,557 4.2 -11.7°
Enters shadow 18:42:57 12° 69° (ENE) 1,563 4.2 -11.7°
